Location: Namasale
(1.5000°N, 32.6167°E)
Time: 23:47:30
(UTC+00:00)

Vanguard 3 - Pass Details

Date: 06 December 2021
Orbit: 508 x 3260 km, 33.3° (Epoch: 27 January)

Event Time Altitude Azimuth Distance (km) Brightness Sun altitude
Exits shadow 22:48:36 12° 44° (NE) 6,045 11.4 -63.2°
Drops below altitude 10° 22:49:21 10° 45° (NE) 6,193 11.5 -63.1°
Sets 22:54:20 0° 48° (NE) 7,172 12.0 -62.4°
